#timestamp,LO_Frequency,Hit 
1498107615.1,286047005.9,N
1498107616.0,286047005.9,N
1498107635.8,286047005.4,N
1498107655.7,286047005.2,N
1498107675.5,286047001.3,N
1498107695.3,286047001.4,N
1498107715.1,286047004.4,N
1498107735.9,286047004.2,N
1498107755.7,286047003.8,N
1498107775.5,286047001.7,N
1498107795.4,286047002.2,N
1498107815.2,286047001.6,N
1498107835.0,286047002.3,N
1498107835.9,286047002.3,N
1498107855.8,286047001.9,N
1498107875.6,286047001.5,N
1498107895.4,286047002.1,N
1498107915.3,286047002.6,N
1498107935.1,286047001.7,N
1498107936.0,286047001.7,N
1498107955.8,286047001.5,N
1498107975.7,286047004.2,N
1498107995.5,286047003.5,N
1498108015.3,286047005.5,N
1498108035.1,286047005.8,N
1498108055.9,286047004.4,N
1498108075.7,286047001.8,N
1498108095.5,286047003.7,N
1498108115.4,286047004.3,N
1498108135.2,286047004.4,N
1498108155.0,286047004.2,N
1498108155.9,286047004.2,N
1498108175.8,286047003.7,N
1498108195.6,286047003.8,N
1498108215.4,286047004.0,N
1498108235.3,286047001.4,N
1498108255.1,286047003.9,N
1498108256.0,286047003.9,N
1498108275.8,286047001.4,N
1498108295.6,286047002.1,N
1498108315.5,286047001.6,N
1498108335.3,286047000.0,N
1498108355.1,286047000.7,N
1498108375.9,286046999.8,N
1498108395.7,286047002.4,N
1498108415.5,286047001.6,N
1498108435.4,286047001.6,N
1498108455.2,286047001.5,N
1498108475.0,286047001.3,N
1498108475.9,286047001.3,N
1498108495.8,286047003.9,N
1498108515.6,286047004.0,N
1498108535.4,286047001.3,N
1498108555.3,286047001.6,N
1498108575.1,286047004.4,N
1498108576.0,286047004.4,N
1498108595.8,286047001.9,N
1498108615.6,286047002.2,N
1498108635.5,286047000.4,N
1498108655.3,286046999.8,N
1498108675.1,286047002.4,N
1498108695.9,286047002.8,N
1498108715.7,286046999.8,N
1498108735.5,286047000.5,N
1498108755.4,286047001.0,N
1498108775.2,286047000.7,N
1498108795.0,286047000.3,N
1498108795.9,286047000.3,N
1498108815.8,286047001.6,N
1498108835.6,286047002.6,N
1498108855.4,286046999.8,N
1498108875.2,286047002.6,N
1498108895.1,286046999.8,N
1498108896.0,286046999.8,N
1498108915.8,286047001.9,N
1498108935.6,286047001.5,N
1498108955.5,286047002.1,N
1498108975.3,286047002.7,N
1498108995.1,286047000.5,N
1498109015.9,286047000.1,N
1498109035.7,286046999.8,N
1498109055.5,286046999.7,N
1498109075.4,286047002.2,N
1498109095.2,286047001.5,N
1498109115.0,286047002.4,N
1498109115.9,286047002.4,N
1498109135.8,286047002.8,N
1498109155.6,286047000.4,N
1498109175.4,286047000.7,N
1498109195.2,286046999.8,N
1498109215.1,286047001.5,N
1498109216.0,286047001.5,N
1498109235.8,286047001.6,N
1498109255.6,286047001.5,N
1498109275.5,286047002.0,N
1498109295.3,286047002.5,N
1498109315.1,286047001.8,N
1498109335.9,286047001.6,N
1498109355.7,286047000.1,N
1498109375.5,286047000.5,N
1498109395.4,286047000.9,N
1498109415.2,286047000.9,N
1498109435.0,286047000.9,N
1498109435.9,286047000.9,N
1498109455.8,286046998.3,N
1498109475.6,286047001.2,N
1498109495.4,286046998.1,N
1498109515.2,286046998.2,N
1498109535.1,286046998.9,N
1498109536.0,286046998.9,N
1498109555.8,286046998.7,N
1498109575.6,286047000.6,N
1498109595.5,286047000.7,N
1498109615.3,286047002.3,N
1498109635.1,286047002.1,N
1498109655.9,286047001.7,N
1498109675.7,286047001.3,N
1498109695.5,286047001.4,N
1498109715.4,286047001.7,N
1498109735.2,286047001.5,N
1498109755.0,286047001.8,N
1498109755.9,286047001.8,N
1498109775.8,286047001.7,N
1498109795.6,286047001.4,N
1498109815.4,286047004.3,N
1498109835.2,286047003.5,N
1498109855.1,286047004.4,N
1498109856.0,286047004.4,N
1498109875.8,286047002.2,N
1498109895.6,286047000.3,N
1498109915.5,286047000.1,N
1498109935.3,286047001.0,N
1498109955.1,286047001.0,N
1498109975.9,286047000.0,N
1498109995.7,286047000.2,N
1498110015.5,286047001.0,N
1498110035.4,286047001.2,N
1498110055.2,286046998.3,N
1498110075.0,286046999.4,N
1498110075.9,286046999.4,N
1498110095.8,286046997.0,N
1498110115.6,286046996.5,N
1498110135.4,286047001.0,N
1498110155.2,286047001.0,N
1498110175.1,286046998.8,N
1498110176.0,286046998.8,N
1498110195.8,286046998.1,N
1498110215.6,286047000.7,N
1498110235.5,286047002.0,N
1498110255.3,286047002.4,N
1498110275.1,286047000.6,N
1498110295.9,286047000.2,N
1498110315.7,286047002.7,N
1498110335.5,286047002.4,N
1498110355.4,286047002.7,N
1498110375.2,286047000.9,N
1498110395.0,286047001.1,N
1498110395.9,286047001.1,N
1498110415.8,286046998.1,N
1498110435.6,286046998.4,N
1498110455.4,286047001.2,N
1498110475.2,286046998.3,N
1498110495.1,286046998.9,N
1498110496.0,286046998.9,N
1498110515.8,286046999.4,N
1498110535.6,286046996.7,N
1498110555.5,286047001.0,N
1498110575.3,286047000.5,N
1498110595.1,286047000.9,N
1498110615.9,286047000.7,N
1498110635.7,286047000.5,N
1498110655.5,286046999.3,N
1498110675.4,286046998.7,N
1498110695.2,286046998.1,N
1498110715.0,286046998.3,N
1498110715.9,286046998.3,N
1498110735.8,286047001.1,N
1498110755.6,286047000.8,N
1498110775.4,286046998.5,N
1498110795.2,286046998.6,N
1498110815.1,286047000.8,N
1498110816.0,286047000.8,N
1498110835.8,286047000.2,N
1498110855.6,286046998.1,N
1498110875.5,286046998.7,N
1498110895.3,286046996.5,N
1498110915.1,286046996.6,N
1498110935.9,286046997.0,N
1498110955.7,286046998.0,N
1498110975.5,286046996.1,N
1498110995.4,286046993.7,Y
1498111015.2,286046994.2,Y
1498111035.0,286046991.8,Y
1498111036.0,286046991.8,Y
1498111055.8,286046992.1,Y
1498111075.6,286046994.7,N
1498111095.5,286046994.3,N
1498111115.3,286046991.7,Y
1498111135.1,286046990.2,Y
1498111155.9,286046990.7,Y
1498111175.7,286046993.2,N
1498111195.5,286046990.4,Y
